#timestamp,LO_Frequency,Hit,StdDev 
1553403615.4,286047001.8,P
1553403635.2,286047001.5,P
1553403655.1,286047001.7,Y
1553403656.0,286047001.7,P
1553403675.8,286046999.7,P
1553403695.6,286047001.8,N
1553403715.5,286047004.0,Y
1553403735.3,286047001.9,P
1553403755.1,286047001.8,P
1553403775.9,286047004.3,P
1553403795.7,286047003.1,N
1553403815.5,286047003.3,N
1553403835.4,286047002.9,N
1553403855.2,286047005.8,Y
1553403875.0,286047001.7,P
1553403875.9,286047001.7,P
1553403895.8,286047001.5,P
1553403915.6,286047004.0,Y
1553403935.4,286046999.8,P
1553403955.3,286047002.1,N
1553403975.1,286047002.3,N
1553403995.8,286047001.9,N
1553404015.7,286047001.7,N
1553404035.5,286047001.5,N
1553404055.3,286047003.9,Y
1553404075.2,286047002.7,P
1553404095.9,286047002.3,P
1553404115.7,286047002.4,P
1553404135.6,286047001.5,Y
1553404155.4,286047000.7,P
1553404175.2,286047001.0,N
1553404195.1,286047000.5,N
1553404196.0,286047000.5,N
1553404215.8,286047000.4,N
1553404235.6,286046999.9,N
1553404255.5,286047000.1,N
1553404275.3,286046999.8,N
1553404295.1,286047002.8,Y
1553404315.9,286047002.7,P
1553404335.7,286047002.6,N
1553404355.5,286047000.2,N
1553404375.4,286047001.8,N
1553404395.2,286047002.0,N
1553404415.0,286047001.6,N
1553404415.9,286047001.6,N
1553404435.8,286047001.7,N
1553404455.6,286047003.8,Y
1553404475.4,286047002.8,P
1553404495.3,286047001.6,N
1553404515.1,286047001.9,P
1553404516.0,286047001.9,Y
1553404535.8,286047000.4,P
1553404555.7,286047002.7,P
1553404575.5,286046999.9,N
1553404595.3,286047002.1,N
1553404615.1,286047002.1,N
1553404635.9,286047001.9,N
1553404655.7,286047001.7,N
1553404675.6,286047003.7,Y
1553404695.4,286047001.9,P
1553404715.2,286047002.0,P
1553404735.0,286047004.0,P
1553404736.0,286047004.0,Y
1553404755.8,286046999.9,P
1553404775.6,286046999.8,N
1553404795.5,286047002.8,N
1553404815.3,286047002.7,N
1553404835.1,286047002.6,N
1553404855.8,286047002.1,N
1553404875.7,286047002.6,N
1553404895.5,286047002.2,N
1553404915.3,286047001.4,N
1553404935.2,286047001.5,N
1553404955.9,286047001.7,N
1553404975.7,286047001.4,N
1553404995.6,286047004.2,Y
1553405015.4,286047002.5,P
1553405035.2,286047002.1,P
1553405055.1,286047001.9,P
1553405056.0,286047001.9,Y
1553405075.8,286047000.5,P
1553405095.6,286047000.5,N
1553405115.5,286047000.5,N
1553405135.3,286047000.3,N
1553405155.1,286047000.7,N
1553405175.9,286047000.8,N
1553405195.7,286047000.4,N
1553405215.5,286046999.7,N
1553405235.3,286047000.3,N
1553405255.2,286047000.4,N
1553405275.0,286046999.9,N
1553405275.9,286046999.9,N
1553405295.7,286046999.9,N
1553405315.6,286047000.1,N
1553405335.4,286046999.8,N
1553405355.2,286046999.8,N
1553405375.1,286047000.5,N
1553405376.0,286047000.5,N
1553405395.8,286047000.1,N
1553405415.6,286047002.3,Y
1553405435.5,286047000.0,P
1553405455.3,286047002.8,P
1553405475.1,286047000.0,N
1553405495.9,286047000.3,N
1553405515.7,286047000.4,N
1553405535.5,286047000.5,N
1553405555.4,286047000.6,N
1553405575.2,286047000.9,N
1553405595.0,286047001.0,N
1553405595.9,286047001.0,N
1553405615.8,286047000.0,N
1553405635.6,286047000.7,N
1553405655.4,286047000.8,N
1553405675.2,286047001.1,N
1553405695.1,286047001.1,N
1553405696.0,286047001.1,N
1553405715.8,286047000.3,N
1553405735.6,286047000.8,N
1553405755.5,286047001.2,N
1553405775.3,286046998.2,Y
1553405795.1,286046998.3,P
1553405815.9,286046998.4,N
1553405835.7,286046998.7,N
1553405855.5,286046998.8,N
1553405875.4,286046996.5,Y
1553405895.2,286046998.2,P
1553405915.0,286046998.6,P
1553405915.9,286046998.6,P
1553405935.8,286046998.4,Y
1553405955.6,286047000.8,P
1553405975.4,286047000.5,N
1553405995.3,286047000.9,N
1553406015.1,286047000.7,N
1553406035.8,286047000.7,N
1553406055.7,286046998.6,N
1553406075.5,286047001.1,N
1553406095.3,286046998.4,N
1553406115.2,286047001.2,N
1553406135.9,286046998.8,N
1553406155.7,286046998.8,N
1553406175.6,286046998.2,N
1553406195.4,286046998.5,N
1553406215.2,286046998.2,N
1553406235.0,286046998.2,N
1553406236.0,286046998.2,N
1553406255.8,286046998.8,N
1553406275.6,286047001.1,N
1553406295.4,286047000.4,N
1553406315.3,286047000.4,N
1553406335.1,286047001.0,N
1553406355.8,286047000.6,N
1553406375.7,286047000.1,N
1553406395.5,286046999.7,N
1553406415.3,286046999.8,N
1553406435.2,286047002.8,N
1553406455.9,286047002.8,N
1553406475.7,286047002.7,N
1553406495.6,286047002.7,N
1553406515.4,286047002.4,N
1553406535.2,286047000.9,N
1553406555.1,286046999.9,N
1553406556.0,286046999.9,N
1553406575.8,286047000.9,N
1553406595.6,286047000.0,N
1553406615.4,286047000.0,N
1553406635.3,286046999.9,N
1553406655.1,286047000.3,N
1553406675.8,286047000.0,N
1553406695.7,286047000.4,N
1553406715.5,286047001.1,N
1553406735.3,286047000.9,N
1553406755.2,286047001.0,N
1553406775.9,286047000.4,N
1553406795.7,286047000.4,N
1553406815.6,286046998.6,N
1553406835.4,286046998.3,N
1553406855.2,286047001.2,N
1553406875.1,286047001.0,N
1553406876.0,286047001.0,N
1553406895.8,286046998.5,N
1553406915.6,286046998.6,N
1553406935.5,286046998.9,N
1553406955.3,286046998.6,N
1553406975.1,286046998.7,N
1553406995.8,286046998.7,N
1553407015.7,286046998.9,N
1553407035.5,286046999.3,N
1553407055.3,286046998.7,N
1553407075.2,286046999.2,N
1553407095.0,286046999.6,N
1553407095.9,286046999.6,N
1553407115.7,286046997.2,Y
1553407135.6,286046999.3,P
1553407155.4,286046996.9,P
1553407175.2,286046996.9,N
1553407195.1,286046996.7,N
1553407196.0,286046996.7,N
